Terminal Aerodrome Forecast
Issued by NWS

Home | Current Version | Previous Version | Text Only | Print | Product List | Glossary On
Versions: 1 2 3 4 5 6 7 8 9 10 11 12 13 14 15 16 17 18 19 20 21 22 23 24 25 26 27 28 29
000
FTUS41 KGYX 012202 AAC
TAFRKD
TAF AMD
KRKD 012202Z 0122/0218 15009KT 6SM BR OVC003
     FM020200 23007KT 1/4SM FG SCT010
     FM021200 26007KT P6SM SCT050
      AMD LTD TO CLD VIS AND WIND=

USA.gov is the U.S. government's official web portal to all federal, state and local government web resources and services.